Regional Weather Roundup
Issued by NWS

Home | Current Version | Previous Version | Text Only | Print | Product List | Glossary Off
Versions: 1 2 3 4 5 6 7 8 9 10 11 12 13 14 15 16 17 18 19 20 21 22 23 24 25 26 27 28 29 30 31 32 33 34 35 36 37 38 39 40 41 42 43 44 45 46 47 48 49 50

000
ASUS43 KLSX 051957
RWRMO

WEATHER SUMMARY FOR MISSOURI
NATIONAL WEATHER SERVICE SPRINGFIELD MO
300 PM CDT THU MAY 05 2016

NOTE: "FAIR" INDICATES FEW OR NO CLOUDS BELOW 12,000 FEET WITH NO
       SIGNIFICANT WEATHER AND/OR OBSTRUCTIONS TO VISIBILITY.
       CURRENT SKY AND/OR WEATHER CONDITIONS ARE NOT AVAILABLE FOR
       CHILLICOTHE AND FARMINGTON.

MOZ001>031-035>038-043-044-053-054-052100-
...NORTHERN AND WESTERN MISSOURI...

CITY           SKY/WX    TMP DP  RH WIND       PRES   REMARKS
KANSAS CTY INT PTSUNNY   72  38  29 VRB7      30.07F
LEE`S SUMMIT   SUNNY     72  35  25 NE8       30.07F
ST JOSEPH      SUNNY     73  34  23 VRB6      30.07F
CHILLICOTHE      N/A     71  38  29 VRB7      30.08F

$$
MOZ066>068-077>081-088>096-101>105-052100-
...SOUTHWEST MISSOURI...

CITY           SKY/WX    TMP DP  RH WIND       PRES   REMARKS
SPRINGFIELD    SUNNY     71  29  21 N16       30.04F
JOPLIN         SUNNY     72  45  37 N9        30.07S
BRANSON        SUNNY     72  37  28 N15G21    30.04F

$$
MOZ032>034-039>042-045>050-055>058-069>072-052100-
...CENTRAL MISSOURI...

CITY           SKY/WX    TMP DP  RH WIND       PRES   REMARKS
COLUMBIA       NOT AVBL
JEFFERSON CITY SUNNY     69  35  28 E8        30.04F
ROLLA          SUNNY     66  41  40 N13       30.03S
SEDALIA        SUNNY     72  32  23 N14       30.08S
WARRENSBURG    SUNNY     70  30  23 N6        30.07F

$$
MOZ051-052-059>065-052100-
...EAST CENTRAL MISSOURI...

CITY           SKY/WX    TMP DP  RH WIND       PRES   REMARKS
ST LOUIS INTL  MOSUNNY   65  42  43 N10       30.03S

$$
MOZ072>076-082>087-097>100-106>115-052100-
...SOUTH CENTRAL AND SOUTHEAST MISSOURI...

CITY           SKY/WX    TMP DP  RH WIND       PRES   REMARKS
CAPE GIRARDEAU PTSUNNY   63  43  48 N20       30.00R
POPLAR BLUFF   SUNNY     70  41  34 NW15G24   29.97S
WEST PLAINS    SUNNY     70  33  25 N14G20    30.02S

$$



USA.gov is the U.S. government's official web portal to all federal, state and local government web resources and services.